EW7157 Weather Reports


Display with metric or nautical units.
time (UTC)temp
F
wind
direction
speed
MPH
gust
MPH
rain 1hr
in
rain 24hr
in
rain mn
in
humidity
%
barometer
mb
20260903041228 70 360 0.0 0.0 0.00 0.02 0.00 91 1040.5
20260903040226 70 360 0.0 0.0 0.00 0.02 0.00 92 1040.7
20260903035324 70 360 0.0 0.0 0.00 0.02 0.02 92 1040.8
20260903034325 70 360 0.0 0.0 0.00 0.02 0.02 93 1040.9
20260903033423 70 360 0.0 0.0 0.00 0.02 0.02 93 1041.2
20260903032423 70 360 0.0 0.0 0.00 0.02 0.02 93 1040.8
20260903031426 70 5 0.0 0.0 0.00 0.02 0.02 92 1040.4
20260903030524 70 45 0.0 0.0 0.00 0.02 0.02 93 1040.6
20260903022525 70 315 0.0 0.0 0.00 0.02 0.02 92 1040.9
20260903021526 70 315 0.0 0.0 0.00 0.02 0.02 92 1040.9
20260903015623 70 315 0.0 0.0 0.00 0.02 0.02 91 1040.3
20260903014626 70 315 0.0 0.0 0.00 0.02 0.02 91 1040.3
20260903013723 70 315 0.0 0.0 0.00 0.02 0.02 91 1040.4
20260903012725 70 315 0.0 0.0 0.00 0.02 0.02 90 1040.5
20260903011726 70 298 0.0 0.0 0.00 0.02 0.02 90 1040.7
20260903005824 70 292 0.0 0.0 0.00 0.03 0.02 91 1040.8
20260903004824 70 292 0.0 0.0 0.00 0.03 0.02 91 1040.8
20260903003825 70 292 0.0 0.0 0.00 0.03 0.02 90 1040.8
20260903002825 70 292 0.0 0.0 0.00 0.04 0.02 90 1040.5
20260903001824 70 292 0.0 0.0 0.00 0.04 0.02 91 1040.5
20260903000825 71 270 0.0 0.0 0.00 0.04 0.02 91 1040.3
20260902234923 71 270 0.0 0.0 0.00 0.04 0.02 91 1040.2
20260902233823 71 270 0.0 0.0 0.00 0.04 0.02 90 1040.3
20260902232922 71 270 0.0 0.0 0.00 0.04 0.02 90 1040.3
20260902231924 71 270 0.0 0.0 0.00 0.04 0.02 90 1040.2
20260902231023 71 270 0.0 0.0 0.00 0.04 0.02 90 1040.2
20260902230023 71 270 0.0 0.0 0.00 0.04 0.02 90 1040.4
20260902225123 71 270 0.0 0.0 0.00 0.04 0.02 90 1040.5
20260902224125 71 270 0.0 0.0 0.00 0.04 0.02 90 1040.6
20260902223125 71 270 0.0 0.0 0.00 0.04 0.02 91 1040.7
20260902221127 71 315 0.0 0.0 0.00 0.04 0.02 90 1041.1
20260902221025 71 315 0.0 0.0 0.00 0.04 0.02 91 1041.1
20260902214123 71 315 0.0 0.0 0.00 0.04 0.02 91 1040.9
20260902213125 71 315 0.0 0.0 0.00 0.04 0.02 90 1040.7
20260902212140 71 315 0.0 0.0 0.00 0.04 0.02 91 1040.4
20260902204224 72 360 0.0 0.0 0.00 0.04 0.02 90 1040.7
20260902204123 72 360 0.0 0.0 0.00 0.04 0.02 91 1040.7
20260902203125 72 337 0.0 0.0 0.00 0.04 0.02 92 1040.7
20260902202224 71 337 0.0 0.0 0.00 0.04 0.02 91 1040.6
20260902201227 71 337 0.0 0.0 0.00 0.04 0.02 93 1040.5
20260902200225 71 337 0.0 1.0 0.00 0.04 0.02 93 1040.6
20260902195226 71 360 0.0 0.0 0.00 0.04 0.02 93 1040.6
20260902193423 71 360 0.0 0.0 0.00 0.04 0.02 93 1040.8
20260902192325 71 360 0.0 0.0 0.00 0.04 0.02 92 1041.1
20260902191424 71 360 0.0 0.0 0.00 0.04 0.02 92 1041.1
20260902190523 71 360 0.0 0.0 0.00 0.04 0.02 92 1041.4
20260902185527 71 360 0.0 0.0 0.00 0.04 0.02 91 1041.4
20260902185425 71 360 0.0 0.0 0.00 0.04 0.02 90 1041.6
20260902184425 71 360 0.0 0.0 0.00 0.04 0.02 91 1041.6
20260902183524 71 360 0.0 0.0 0.00 0.04 0.02 91 1041.6
20260902182541 71 360 0.0 0.0 0.00 0.04 0.02 90 1041.8
20260902181523 71 360 0.0 0.0 0.00 0.04 0.02 90 1042.0
20260902180524 71 360 0.0 0.0 0.00 0.04 0.02 89 1041.8
20260902175523 71 360 0.0 0.0 0.00 0.04 0.02 89 1041.6
20260902173525 72 360 0.0 0.0 0.00 0.04 0.02 88 1041.7
20260902172524 72 360 0.0 0.0 0.00 0.04 0.02 88 1042.2
20260902172423 72 360 0.0 0.0 0.00 0.04 0.02 88 1042.2
20260902170425 72 360 0.0 0.0 0.00 0.04 0.02 86 1042.6
20260902165424 72 360 0.0 0.0 0.00 0.04 0.02 86 1042.8
20260902164423 72 360 0.0 0.0 0.01 0.04 0.02 87 1042.8
20260902163426 72 360 0.0 0.0 0.01 0.04 0.02 87 1042.6
20260902162427 72 360 0.0 0.0 0.01 0.04 0.02 86 1042.7
20260902161524 72 360 0.0 0.0 0.01 0.04 0.02 87 1042.4
20260902161425 72 360 0.0 0.0 0.01 0.04 0.02 87 1042.3
20260902160424 72 360 0.0 0.0 0.01 0.04 0.02 87 1042.3
20260902155424 71 360 0.0 0.0 0.02 0.04 0.01 87 1042.1
20260902154425 71 360 0.0 1.0 0.01 0.03 0.01 87 1042.3
20260902151524 71 360 0.0 0.0 0.01 0.03 0.01 88 1042.3
20260902150524 71 360 0.0 0.0 0.01 0.03 0.01 88 1042.3
20260902145524 70 360 0.0 0.0 0.00 0.02 0.00 89 1042.5
20260902144524 70 360 0.0 0.0 0.00 0.02 0.00 89 1042.6
20260902143623 70 360 0.0 0.0 0.00 0.02 0.00 89 1042.6
20260902142625 70 236 0.0 0.0 0.00 0.02 0.00 88 1042.3
20260902141624 70 225 0.0 0.0 0.00 0.02 0.00 89 1042.1
20260902140640 70 360 0.0 1.0 0.00 0.02 0.00 89 1042.3
20260902140523 70 360 0.0 0.0 0.00 0.02 0.00 90 1042.3
20260902135424 70 360 0.0 1.0 0.00 0.02 0.00 91 1042.2
20260902134523 70 360 0.0 0.0 0.00 0.02 0.00 91 1042.3
20260902133524 69 360 0.0 0.0 0.00 0.02 0.00 91 1042.2
20260902132524 69 315 0.0 0.0 0.00 0.02 0.00 92 1042.1
20260902130624 69 360 0.0 0.0 0.00 0.02 0.00 93 1041.8
20260902125623 69 315 0.0 0.0 0.00 0.02 0.00 93 1041.6
20260902124624 69 292 0.0 0.0 0.00 0.02 0.00 93 1041.8
20260902122625 68 270 0.0 0.0 0.00 0.02 0.00 94 1041.6
20260902121626 68 270 0.0 0.0 0.00 0.02 0.00 93 1041.5
20260902121524 68 270 0.0 0.0 0.00 0.02 0.00 94 1041.6
20260902120525 68 90 0.0 0.0 0.00 0.02 0.00 94 1041.5
20260902114523 68 360 0.0 0.0 0.00 0.02 0.00 95 1041.6
20260902113523 68 225 0.0 0.0 0.00 0.02 0.00 95 1041.5
20260902112524 68 225 0.0 0.0 0.00 0.02 0.00 95 1041.4
20260902110524 68 225 0.0 0.0 0.00 0.02 0.00 95 1041.5
20260902105524 68 360 0.0 0.0 0.00 0.02 0.00 95 1041.5
20260902104523 68 360 0.0 0.0 0.00 0.02 0.00 95 1041.3
20260902103525 68 360 0.0 0.0 0.00 0.02 0.00 95 1041.3
20260902103423 68 360 0.0 0.0 0.00 0.02 0.00 95 1041.1
20260902101425 68 360 0.0 0.0 0.00 0.03 0.00 94 1041.1
20260902100423 69 360 0.0 0.0 0.00 0.03 0.00 94 1041.2
20260902095424 69 360 0.0 0.0 0.00 0.03 0.00 94 1041.3
20260902095323 69 360 0.0 0.0 0.00 0.03 0.00 94 1041.3
20260902095224 69 360 0.0 0.0 0.00 0.03 0.00 94 1041.2
20260902092323 69 360 0.0 0.0 0.00 0.03 0.00 94 1040.9
20260902091324 69 360 0.0 0.0 0.00 0.03 0.00 94 1040.8
20260902090325 69 360 0.0 0.0 0.00 0.03 0.00 93 1040.6
20260902085324 69 360 0.0 0.0 0.00 0.03 0.00 93 1040.6
20260902083325 69 360 0.0 0.0 0.00 0.03 0.00 94 1040.4
20260902082327 69 360 0.0 0.0 0.00 0.03 0.00 93 1040.3
20260902081323 69 360 0.0 0.0 0.00 0.03 0.00 93 1040.2
20260902081225 69 360 0.0 0.0 0.00 0.03 0.00 94 1040.2
20260902081123 69 360 0.0 0.0 0.00 0.03 0.00 93 1040.2
20260902080125 69 360 0.0 0.0 0.00 0.03 0.00 94 1040.1
20260902075223 69 360 0.0 0.0 0.00 0.03 0.00 92 1040.0
20260902075124 69 360 0.0 0.0 0.00 0.03 0.00 92 1040.1
20260902073224 70 22 0.0 0.0 0.00 0.03 0.00 92 1039.9
20260902072226 70 22 0.0 0.0 0.00 0.03 0.00 93 1039.8
20260902072124 70 22 0.0 0.0 0.00 0.03 0.00 93 1039.8
20260902071126 70 360 0.0 2.0 0.00 0.03 0.00 93 1039.8
20260902070223 71 360 0.0 3.0 0.00 0.03 0.00 92 1039.9
20260902065223 71 360 0.0 1.0 0.00 0.03 0.00 93 1039.8
20260902064223 71 285 0.0 0.0 0.00 0.03 0.00 94 1039.7
20260902063222 71 45 0.0 1.0 0.00 0.03 0.00 93 1039.5
20260902062225 71 45 0.0 0.0 0.00 0.03 0.00 93 1039.5
20260902061223 71 90 0.0 0.0 0.00 0.03 0.00 94 1039.3
20260902060223 71 90 0.0 0.0 0.00 0.03 0.00 93 1039.4
20260902055123 71 90 0.0 0.0 0.00 0.03 0.00 94 1039.4
20260902054125 71 90 0.0 0.0 0.00 0.03 0.00 94 1039.5
20260902053223 71 90 0.0 0.0 0.00 0.03 0.00 94 1039.4
20260902052225 72 90 0.0 0.0 0.00 0.03 0.00 93 1039.5
20260902051323 72 90 0.0 0.0 0.00 0.03 0.00 93 1039.6
20260902050325 72 90 0.0 0.0 0.00 0.03 0.00 94 1039.7
20260902045323 72 90 0.0 0.0 0.00 0.03 0.00 93 1039.8
20260902045224 72 90 0.0 0.0 0.00 0.03 0.00 92 1039.8
20260902044224 72 90 0.0 0.0 0.00 0.03 0.00 93 1039.8
20260902043225 72 90 0.0 0.0 0.00 0.03 0.00 92 1039.9
20260902043125 72 90 0.0 0.0 0.00 0.03 0.00 93 1039.7
20260902042125 72 90 0.0 0.0 0.00 0.03 0.00 94 1039.6